This demonstration page uses our WeatherBlox Daily Observations layout. Learn more.

Left ArrowRight Arrow

36.19886, -115.1175

Hourly Observations for December 9, 2021

Temp ( °F °C ) Dew Point ( °F °C ) Humidity (%) Winds ( mph kmh ) Pressure ( in mb ) Visibility ( mi km ) Precip ( " mm )
12:53 am 00:53 Clear 51 10.6 38 3.3 61 61 ENE 5 7 29.83 1010 10 16 0.00 0.00
1:53 am 01:53 Clear 48 8.9 37 2.8 66 66 WNW 3 6 29.83 1010 10 16 0.00 0.00
2:53 am 02:53 Clear 50 10 37 2.8 61 61 N 3 6 29.80 1009 10 16 0.00 0.00
3:53 am 03:53 Mostly Clear 57 13.9 38 3.3 49 49 S 8 13 29.76 1008 10 16 0.00 0.00
4:53 am 04:53 Clear 58 14.4 38 3.3 48 48 S 14 22 29.74 1007 10 16 0.00 0.00
5:53 am 05:53 Clear 59 15 38 3.3 46 46 S 17 28 29.75 1007 10 16 0.00 0.00
6:53 am 06:53 Sunny 57 13.9 39 3.9 51 51 SSE 16 26 29.75 1007 10 16 0.00 0.00
7:53 am 07:53 Sunny 58 14.4 40 4.4 51 51 SW 24 39 29.75 1007 10 16 0.00 0.00
8:53 am 08:53 Mostly Cloudy 58 14.4 39 3.9 50 50 SSW 22 35 29.76 1008 10 16 0.00 0.00
9:53 am 09:53 Mostly Cloudy 59 15 38 3.3 46 46 SSW 18 30 29.76 1008 10 16 0.00 0.00
10:53 am 10:53 Cloudy 59 15 37 2.8 44 44 S 14 22 29.75 1008 10 16 0.00 0.00
11:53 am 11:53 Cloudy 57 13.9 36 2.2 45 45 SW 10 17 29.76 1008 10 16 0.00 0.00
12:53 pm 12:53 Cloudy 58 14.4 34 1.1 41 41 SSW 14 22 29.72 1007 10 16 0.00 0.00
1:53 pm 13:53 Cloudy 58 14.4 35 1.7 42 42 SSW 18 30 29.72 1006 10 16 0.00 0.00
2:53 pm 14:53 Cloudy 59 15 35 1.7 41 41 SW 21 33 29.72 1006 10 16 0.00 0.00
3:53 pm 15:53 Mostly Sunny 58 14.4 35 1.7 42 42 SW 10 17 29.71 1006 10 16 0.00 0.00
4:53 pm 16:53 Partly Cloudy 57 13.9 34 1.1 42 42 WSW 16 26 29.72 1007 10 16 0.00 0.00
5:53 pm 17:53 Cloudy with Light Rain 53 11.7 40 4.4 61 61 NW 21 33 29.77 1008 10 16 0.00 0.00
6:00 pm 18:00 Cloudy with Light Rain 52 11.1 41 5 66 66 NW 24 39 29.74 1007 10 16 0.00 0.00
6:53 pm 18:53 Cloudy 52 11.1 38 3.3 59 59 WNW 20 31 29.80 1009 10 16 0.00 0.00
7:53 pm 19:53 Cloudy with Light Rain 52 11.1 37 2.8 57 57 WNW 14 22 29.83 1010 10 16 0.00 0.00
8:53 pm 20:53 Cloudy 53 11.7 35 1.7 51 51 NW 15 24 29.83 1010 10 16 0.00 0.00
9:53 pm 21:53 Clear 51 10.6 36 2.2 56 56 NNW 15 24 29.85 1011 10 16 0.00 0.00
10:53 pm 22:53 Clear 51 10.6 36 2.2 56 56 NNW 18 30 29.87 1011 10 16 0.00 0.00
11:53 pm 23:53 Clear 50 10 34 1.1 54 54 NNW 17 28 29.88 1012 10 16 0.00 0.00

Powered by AerisWeather